Location: Waltman Observatory
(32.5145°N, 90.4450°W)
Time: 12:15:28
(UTC-05:00)

Amateur Radio Satellites - All Passes

Search period start: 24 June 2017 11:45
Search period end: 25 June 2017 11:45
Location: Waltman Observatory, 32.5145°N, 90.4450°W

Satellite Date Start Highest point End Downlink Frequencies (MHz)
Time Altitude Azimuth
ESTCUBE 1 24 Jun 11:50:53 11:54:45 28° 97° (E) 11:58:35 437.505/2401.250
LO-87 24 Jun 11:55:00 11:58:37 61° 101° (E) 12:02:12 145.935 - 145.965
AIST 2D 24 Jun 12:02:54 12:06:17 41° 261° (W) 12:09:40 435.315
YUBILEINY 24 Jun 12:15:51 12:17:23 11° 283° (WNW) 12:18:56 435.215
POLYITAN 1 24 Jun 12:17:15 12:21:30 78° 260° (W) 12:25:47 437.675
QB50P2 24 Jun 12:28:09 12:32:16 50° 260° (W) 12:36:26 145.880/145.840
SPROUT 24 Jun 12:31:04 12:34:06 18° 95° (E) 12:37:05 437.525
PCSat 24 Jun 12:33:59 12:39:24 89° 287° (WNW) 12:44:51 145.827
BUGSAT 1 24 Jun 12:49:07 12:53:04 50° 75° (ENE) 12:57:07 437.445
EO-79 24 Jun 12:53:46 12:57:22 27° 263° (W) 13:01:01 145.935-145.965
DUCHIFAT 1 24 Jun 13:09:47 13:13:05 22° 264° (W) 13:16:24 145.980
Oscar 19 24 Jun 13:13:11 13:17:52 36° 71° (ENE) 13:22:33 437.125/150
NANOSAT C BR1 24 Jun 13:18:21 13:20:57 16° 266° (W) 13:23:33 145.865
50 SAT 24 Jun 13:27:06 13:30:11 32° 99° (E) 13:33:17 437.505
ESTCUBE 1 24 Jun 13:28:01 13:31:19 21° 290° (WNW) 13:34:38 437.505/2401.250
JUGNU 24 Jun 13:28:48 13:32:38 18° 168° (SSE) 13:36:29 437.505
VELOX 1 24 Jun 13:34:26 13:38:53 81° 282° (WNW) 13:43:18 145.980
Gurwin Techsat 1B 24 Jun 13:55:21 14:00:33 59° 74° (ENE) 14:05:46 435.225
DX 1 24 Jun 13:58:26 14:02:43 56° 101° (E) 14:07:01 434.975-435.025
SPROUT 24 Jun 14:06:15 14:09:57 28° 288° (WNW) 14:13:38 437.525
SO-50 24 Jun 14:14:28 14:18:46 42° 114° (ESE) 14:23:03 436.795
UKube-1 24 Jun 14:18:17 14:22:35 63° 101° (ESE) 14:26:51 .
PCSat 24 Jun 14:21:56 14:23:31 11° 311° (NW) 14:25:07 145.827
AO-7 24 Jun 14:25:11 14:31:40 26° 60° (ENE) 14:38:10 .
Oscar 19 24 Jun 14:53:22 14:57:13 21° 265° (W) 15:01:03 437.125/150
Tancredo 1 24 Jun 15:01:20 15:03:07 14° 33° (NNE) 15:04:52 437.200
ITUPSAT 1 24 Jun 15:05:34 15:08:33 16° 94° (E) 15:11:31 437.325
SRMSAT 24 Jun 15:12:48 15:15:01 12° 163° (SSE) 15:17:14 437.500
BEESAT 24 Jun 15:15:49 15:19:30 22° 96° (E) 15:23:11 436.000
JUGNU 24 Jun 15:16:22 15:21:03 24° 178° (S) 15:25:44 437.505
ITAMSAT 1 24 Jun 15:26:31 15:31:34 54° 73° (ENE) 15:36:38 435.822/435.867
DX 1 24 Jun 15:37:32 15:38:22 10° 294° (WNW) 15:39:12 434.975-435.025
Gurwin Techsat 1B 24 Jun 15:38:22 15:40:46 13° 267° (W) 15:43:13 435.225
SO-50 24 Jun 15:56:18 15:59:22 18° 308° (NW) 16:02:26 436.795
AO-7 24 Jun 16:15:37 16:23:47 62° 256° (WSW) 16:32:02 .
MOZHAYETS 4 24 Jun 16:34:02 16:38:36 73° 285° (WNW) 16:43:08
Tancredo 1 24 Jun 16:35:57 16:38:51 40° 228° (SW) 16:41:42 437.200
ISS 24 Jun 16:40:23 16:43:41 80° 44° (NE) 16:46:58 437.550
KKS-1 24 Jun 16:41:55 16:43:50 12° 94° (E) 16:45:44 437.445
ITUPSAT 1 24 Jun 16:42:01 16:46:29 40° 288° (WNW) 16:50:54 437.325
BEESAT 24 Jun 16:53:05 16:57:13 30° 289° (WNW) 17:01:20 436.000
SRMSAT 24 Jun 16:59:11 17:03:32 21° 172° (S) 17:07:53 437.500
JUGNU 24 Jun 17:05:06 17:09:29 21° 188° (S) 17:13:52 437.505
ITAMSAT 1 24 Jun 17:08:40 17:11:16 14° 267° (W) 17:13:53 435.822/435.867
CUBESAT XI-V 24 Jun 17:11:48 17:16:14 46° 99° (E) 17:20:38 437.345
DOVE 4 24 Jun 17:14:40 17:17:51 22° 71° (ENE) 17:21:05 437.250
STARS 24 Jun 17:15:19 17:16:55 12° 93° (E) 17:18:30 437.465
NUDT-PHONESAT 24 Jun 17:45:24 17:47:35 15° 70° (ENE) 17:49:46 437.300
HO-68 24 Jun 17:47:27 17:47:47 10° 56° (NE) 17:48:07 435.675
XW-2F 24 Jun 17:56:06 17:59:20 27° 73° (ENE) 18:02:36 145.980 - 146.000
XW-2D 24 Jun 17:59:02 18:02:29 32° 74° (ENE) 18:05:56 145.860 - 145.880
CUTE-I 24 Jun 18:01:11 18:05:59 36° 71° (ENE) 18:10:50 437.470
LilacSat-2 24 Jun 18:05:39 18:09:18 41° 75° (ENE) 18:12:58 437.200
XW-2B 24 Jun 18:07:48 18:11:25 40° 75° (ENE) 18:15:03 145.730 - 145.750
KKS-1 24 Jun 18:16:16 18:20:32 45° 287° (WNW) 18:24:49 437.445
XW-2C 24 Jun 18:22:59 18:26:49 69° 77° (ENE) 18:30:38 145.795 - 145.815
CUTE 1.7 + AOD 2 24 Jun 18:34:41 18:36:17 12° 68° (ENE) 18:37:53 437.475
KAITUO 1B 24 Jun 18:40:01 18:43:48 89° 79° (E) 18:47:36 145.475/437.950
SRMSAT 24 Jun 18:47:29 18:52:08 24° 182° (S) 18:56:44 437.500
STARS 24 Jun 18:49:10 18:53:26 47° 286° (WNW) 18:57:40 437.465
CUBESAT XI-V 24 Jun 18:50:53 18:53:09 14° 293° (WNW) 18:55:24 437.345
DOVE 4 24 Jun 18:52:16 18:55:26 21° 265° (W) 18:58:40 437.250
XW-2A 24 Jun 18:53:53 18:54:57 11° 69° (ENE) 18:56:00 145.665 - 145.685
JUGNU 24 Jun 18:55:37 18:57:52 12° 197° (SSW) 19:00:06 437.505
NUDT-PHONESAT 24 Jun 19:17:59 19:21:12 27° 263° (W) 19:24:26 437.300
HO-68 24 Jun 19:27:04 19:34:12 70° 72° (ENE) 19:41:22 435.675
XW-2F 24 Jun 19:31:13 19:33:27 15° 265° (W) 19:35:41 145.980 - 146.000
XW-2D 24 Jun 19:35:00 19:36:42 13° 266° (W) 19:38:24 145.860 - 145.880
CUTE-I 24 Jun 19:41:59 19:46:03 22° 264° (W) 19:50:09 437.470
AO-85 24 Jun 19:51:41 19:54:11 16° 110° (ESE) 19:56:37 145.980
SEEDS 24 Jun 19:52:03 19:56:13 67° 76° (ENE) 20:00:22 437.485
CUBEBUG 2 24 Jun 20:07:19 20:11:50 79° 77° (ENE) 20:16:31 437.445
AO-73 24 Jun 20:07:22 20:10:47 21° 70° (ENE) 20:14:14 145.935
CUTE 1.7 + AOD 2 24 Jun 20:07:35 20:11:40 45° 261° (W) 20:15:45 437.475
XW-2A 24 Jun 20:24:20 20:27:21 29° 262° (W) 20:30:23 145.665 - 145.685
BEESAT 3 24 Jun 20:28:44 20:31:45 21° 110° (ESE) 20:34:48 437.485
STRAND 1 24 Jun 20:34:34 20:39:45 83° 284° (WNW) 20:44:53 437.568
Oscar 11 24 Jun 20:35:20 20:39:13 33° 73° (ENE) 20:43:07 .
RS-15 24 Jun 20:36:45 20:48:10 52° 109° (ESE) 20:59:52 29.354- 29.394
SRMSAT 24 Jun 20:36:54 20:40:40 17° 192° (SSW) 20:44:26 437.500
ZACube-1 24 Jun 20:40:34 20:45:00 59° 76° (ENE) 20:49:31 437.345
NO-84 24 Jun 20:41:06 20:42:40 12° 118° (ESE) 20:44:17 435.350 FM
UWE-3 24 Jun 20:43:14 20:47:44 68° 259° (W) 20:52:22 435.000/436.395/437.385
AAUSAT CUBESAT 2 24 Jun 20:46:16 20:50:19 58° 260° (W) 20:54:23 437.432
O/OREOS (USA 219) 24 Jun 20:54:57 20:57:42 16° 100° (E) 21:00:25 437.305
YUBILEINY 24 Jun 21:14:01 21:20:39 25° 83° (E) 21:27:17 435.215
HO-68 24 Jun 21:17:54 21:22:22 17° 266° (W) 21:26:51 435.675
BEESAT 2 24 Jun 21:24:50 21:28:19 31° 112° (ESE) 21:31:54 435.950
PCSat 24 Jun 21:26:58 21:31:36 28° 57° (ENE) 21:36:13 145.827
FO-29 24 Jun 21:28:45 21:34:13 20° 92° (E) 21:39:34 435.910
AO-85 24 Jun 21:30:34 21:34:17 32° 302° (WNW) 21:37:53 145.980
AO-73 24 Jun 21:42:54 21:46:47 28° 264° (W) 21:50:43 145.935
EO-88 24 Jun 22:00:28 22:04:03 53° 75° (ENE) 22:07:38 145.990 - 145.960
BEESAT 3 24 Jun 22:05:55 22:09:09 24° 305° (NW) 22:12:28 437.485
Oscar 11 24 Jun 22:12:38 22:15:22 16° 266° (W) 22:18:08 .
NO-84 24 Jun 22:15:58 22:19:41 52° 314° (NW) 22:23:44 435.350 FM
DELFI C3 24 Jun 22:21:48 22:25:34 46° 261° (W) 22:29:20 145.870
M-CUBED/EXP-1 PRIME 24 Jun 22:23:06 22:26:49 51° 105° (ESE) 22:30:49 437.505
TIGRISAT 24 Jun 22:26:30 22:30:36 31° 97° (E) 22:34:36 435.000
LO-87 24 Jun 22:28:34 22:29:57 12° 69° (ENE) 22:31:20 145.935 - 145.965
O/OREOS (USA 219) 24 Jun 22:32:31 22:36:43 36° 293° (WNW) 22:40:56 437.305
PRISM 24 Jun 22:35:16 22:39:10 41° 99° (E) 22:43:03 437.425
ESTCUBE 1 24 Jun 22:46:58 22:49:39 16° 68° (ENE) 22:52:20 437.505/2401.250
RS-15 24 Jun 22:49:25 23:00:47 44° 309° (NW) 23:12:27 29.354- 29.394
SO-50 24 Jun 22:51:39 22:53:34 12° 49° (NE) 22:55:29 436.795
BEESAT 2 24 Jun 23:03:25 23:06:07 17° 307° (NW) 23:08:51 435.950
UNISAT 6 24 Jun 23:07:55 23:12:34 77° 284° (WNW) 23:17:06 437.425
YUBILEINY 24 Jun 23:08:07 23:16:43 59° 279° (W) 23:25:24 435.215
PCSat 24 Jun 23:10:10 23:14:56 32° 252° (WSW) 23:19:41 145.827
FO-29 24 Jun 23:11:49 23:19:38 71° 286° (WNW) 23:27:17 435.910
AIST 2D 24 Jun 23:33:05 23:35:30 18° 95° (E) 23:37:54 435.315
LO-87 24 Jun 23:59:56 00:03:03 29° 262° (W) 00:06:12 145.935 - 145.965
TIGRISAT 25 Jun 00:03:38 00:07:01 20° 291° (WNW) 00:10:20 435.000
POLYITAN 1 25 Jun 00:07:10 00:10:37 23° 96° (E) 00:14:02 437.675
PRISM 25 Jun 00:12:21 00:14:01 12° 293° (WNW) 00:15:42 437.425
QB50P2 25 Jun 00:17:33 00:21:29 35° 98° (E) 00:25:22 145.880/145.840
ESTCUBE 1 25 Jun 00:21:54 00:26:05 38° 261° (W) 00:30:17 437.505/2401.250
VELOX 1 25 Jun 00:26:55 00:31:07 48° 74° (ENE) 00:35:20 145.980
SO-50 25 Jun 00:29:55 00:34:25 65° 244° (WSW) 00:38:55 436.795
BUGSAT 1 25 Jun 00:37:53 00:38:54 11° 93° (E) 00:39:56 437.445
EO-79 25 Jun 00:42:06 00:46:22 66° 102° (ESE) 00:50:34 145.935-145.965
DX 1 25 Jun 00:49:46 00:53:23 26° 71° (ENE) 00:56:59 434.975-435.025
SPROUT 25 Jun 00:54:01 00:58:15 70° 259° (WSW) 01:02:32 437.525
DUCHIFAT 1 25 Jun 00:57:04 01:01:21 80° 104° (ESE) 01:05:33 145.980
FO-29 25 Jun 01:00:37 01:03:16 12° 302° (WNW) 01:05:54 435.910
NANOSAT C BR1 25 Jun 01:05:10 01:09:25 70° 284° (WNW) 01:13:37 145.865
AIST 2D 25 Jun 01:06:07 01:08:34 18° 288° (WNW) 01:11:01 435.315
UKube-1 25 Jun 01:08:26 01:12:07 28° 71° (ENE) 01:15:48 .
RS-15 25 Jun 01:12:16 01:17:56 14° 339° (NNW) 01:23:36 29.354- 29.394
50 SAT 25 Jun 01:26:33 01:29:52 57° 259° (W) 01:33:12 437.505
Oscar 19 25 Jun 01:30:10 01:33:36 18° 95° (E) 01:37:04 437.125/150
POLYITAN 1 25 Jun 01:42:55 01:46:15 22° 290° (WNW) 01:49:33 437.675
QB50P2 25 Jun 01:54:24 01:56:55 15° 292° (WNW) 01:59:25 145.880/145.840
VELOX 1 25 Jun 02:06:31 02:07:46 11° 267° (W) 02:09:00 145.980
ITUPSAT 1 25 Jun 02:09:12 02:11:04 12° 65° (ENE) 02:12:57 437.325
BUGSAT 1 25 Jun 02:10:22 02:14:27 47° 286° (WNW) 02:18:28 437.445
Gurwin Techsat 1B 25 Jun 02:16:30 02:21:18 34° 98° (E) 02:26:04 435.225
BEESAT 25 Jun 02:18:34 02:21:28 16° 67° (ENE) 02:24:21 436.000
DX 1 25 Jun 02:26:17 02:29:28 20° 264° (W) 02:32:41 434.975-435.025
UKube-1 25 Jun 02:45:06 02:48:06 18° 264° (W) 02:51:06 .
Oscar 19 25 Jun 03:08:15 03:13:01 41° 288° (WNW) 03:17:47 437.125/150
MOZHAYETS 4 25 Jun 03:30:51 03:35:24 61° 76° (ENE) 03:39:59
RS-15 25 Jun 03:33:44 03:38:44 13° 19° (NNE) 03:43:41 29.354- 29.394
ITUPSAT 1 25 Jun 03:43:36 03:48:20 58° 259° (W) 03:53:05 437.325
ITAMSAT 1 25 Jun 03:44:25 03:48:53 28° 97° (E) 03:53:19 435.822/435.867
BEESAT 25 Jun 03:54:18 03:58:50 43° 261° (W) 04:03:23 436.000
Gurwin Techsat 1B 25 Jun 03:56:48 04:01:00 24° 292° (WNW) 04:05:12 435.225
CUBESAT XI-V 25 Jun 04:10:47 04:14:41 27° 71° (ENE) 04:18:34 437.345
AO-7 25 Jun 04:22:15 04:30:34 63° 104° (ESE) 04:38:48 .
NO-84 25 Jun 04:54:12 04:57:09 18° 36° (NE) 05:00:04 435.350 FM
KKS-1 25 Jun 05:09:11 05:13:36 90° 17° (NNE) 05:18:02 437.445
DOVE 4 25 Jun 05:19:02 05:20:17 11° 92° (E) 05:21:32 437.250
ITAMSAT 1 25 Jun 05:23:48 05:28:13 28° 291° (WNW) 05:32:36 435.822/435.867
STARS 25 Jun 05:40:37 05:44:59 83° 76° (ENE) 05:49:23 437.465
RS-15 25 Jun 05:44:53 05:56:07 41° 50° (NE) 06:06:45 29.354- 29.394
CUBESAT XI-V 25 Jun 05:48:19 05:51:57 23° 264° (W) 05:55:36 437.345
AO-85 25 Jun 06:04:51 06:08:55 49° 60° (ENE) 06:13:15 145.980
AO-7 25 Jun 06:16:10 06:22:39 26° 300° (WNW) 06:29:08 .
KAITUO 1B 25 Jun 06:17:43 06:19:03 12° 93° (E) 06:20:22 145.475/437.950
CUTE-I 25 Jun 06:23:21 06:27:22 21° 95° (E) 06:31:21 437.470
BEESAT 3 25 Jun 06:26:05 06:29:53 42° 59° (ENE) 06:33:37 437.485
NO-84 25 Jun 06:30:49 06:35:06 62° 232° (SW) 06:39:10 435.350 FM
NUDT-PHONESAT 25 Jun 06:52:23 06:55:48 35° 98° (E) 06:59:10 437.300
DOVE 4 25 Jun 06:53:15 06:58:11 67° 284° (WNW) 07:03:20 437.250
HO-68 25 Jun 07:02:11 07:06:15 16° 93° (E) 07:10:17 435.675
XW-2F 25 Jun 07:05:59 07:09:43 76° 101° (ESE) 07:13:26 145.980 - 146.000
O/OREOS (USA 219) 25 Jun 07:08:59 07:11:34 15° 61° (ENE) 07:14:09 437.305
XW-2D 25 Jun 07:09:34 07:13:20 86° 283° (WNW) 07:17:05 145.860 - 145.880
LilacSat-2 25 Jun 07:17:14 07:20:58 64° 284° (WNW) 07:24:40 437.200
XW-2B 25 Jun 07:18:35 07:22:20 66° 282° (WNW) 07:26:01 145.730 - 145.750
BEESAT 2 25 Jun 07:23:38 07:27:40 66° 61° (ENE) 07:31:38 435.950
Tancredo 1 25 Jun 07:27:48 07:30:34 34° 131° (SE) 07:33:21 437.200
XW-2C 25 Jun 07:34:14 07:37:45 38° 286° (WNW) 07:41:14 145.795 - 145.815
ISS 25 Jun 07:41:20 07:43:53 21° 129° (SE) 07:46:27 437.550
SEEDS 25 Jun 07:41:37 07:44:04 15° 94° (E) 07:46:31 437.485
STRAND 1 25 Jun 07:45:38 07:50:46 88° 73° (ENE) 07:55:56 437.568
AO-85 25 Jun 07:47:16 07:48:57 12° 251° (WSW) 07:50:41 145.980
KAITUO 1B 25 Jun 07:49:49 07:53:07 31° 286° (WNW) 07:56:23 145.475/437.950
XW-2A 25 Jun 07:50:44 07:53:19 20° 96° (E) 07:55:51 145.665 - 145.685
CUTE 1.7 + AOD 2 25 Jun 07:56:51 08:00:48 40° 99° (E) 08:04:44 437.475
RS-15 25 Jun 07:57:22 08:08:49 55° 251° (WSW) 08:19:42 29.354- 29.394
CUTE-I 25 Jun 08:02:30 08:07:27 39° 289° (WNW) 08:12:23 437.470
CUBEBUG 2 25 Jun 08:03:26 08:07:14 24° 95° (E) 08:10:57 437.445
BEESAT 3 25 Jun 08:05:41 08:07:00 11° 252° (WSW) 08:08:18 437.485
NUDT-PHONESAT 25 Jun 08:28:20 08:29:17 11° 292° (WNW) 08:30:15 437.300
AAUSAT CUBESAT 2 25 Jun 08:33:02 08:36:37 28° 97° (E) 08:40:10 437.432
ZACube-1 25 Jun 08:34:53 08:37:38 16° 94° (E) 08:40:19 437.345
UWE-3 25 Jun 08:37:48 08:41:58 34° 97° (E) 08:45:59 435.000/436.395/437.385
O/OREOS (USA 219) 25 Jun 08:46:57 08:51:07 39° 256° (WSW) 08:55:16 437.305
HO-68 25 Jun 08:47:19 08:54:28 74° 287° (WNW) 09:01:35 435.675
Tancredo 1 25 Jun 09:04:15 09:06:14 16° 326° (NW) 09:08:12 437.200
M-CUBED/EXP-1 PRIME 25 Jun 09:05:57 09:08:42 24° 68° (ENE) 09:11:24 437.505
SEEDS 25 Jun 09:16:05 09:19:47 32° 287° (WNW) 09:23:28 437.485
ISS 25 Jun 09:17:27 09:20:15 26° 322° (NW) 09:23:04 437.550
FO-29 25 Jun 09:19:38 09:24:46 31° 67° (ENE) 09:30:29 435.910
PRISM 25 Jun 09:21:11 09:23:41 16° 69° (ENE) 09:26:10 437.425
TIGRISAT 25 Jun 09:21:25 09:24:17 17° 68° (ENE) 09:27:11 435.000
XW-2A 25 Jun 09:23:49 09:25:50 15° 289° (WNW) 09:27:52 145.665 - 145.685
YUBILEINY 25 Jun 09:23:56 09:32:37 58° 80° (E) 09:41:11 435.215
CUTE 1.7 + AOD 2 25 Jun 09:34:19 09:36:13 13° 292° (WNW) 09:38:07 437.475
AO-73 25 Jun 09:34:48 09:39:14 80° 101° (E) 09:43:31 145.935
CUBEBUG 2 25 Jun 09:39:52 09:43:43 25° 289° (WNW) 09:47:28 437.445
UNISAT 6 25 Jun 10:01:36 10:06:00 52° 75° (ENE) 10:10:32 437.425
Oscar 11 25 Jun 10:02:30 10:06:45 62° 284° (WNW) 10:10:58 .
DELFI C3 25 Jun 10:03:20 10:06:44 27° 97° (E) 10:10:07 145.870
AAUSAT CUBESAT 2 25 Jun 10:09:07 10:11:48 17° 290° (WNW) 10:14:29 437.432
ZACube-1 25 Jun 10:09:58 10:13:58 34° 287° (WNW) 10:17:52 437.345
UWE-3 25 Jun 10:15:04 10:18:04 18° 292° (WNW) 10:21:01 435.000/436.395/437.385
HO-68 25 Jun 10:39:16 10:40:58 11° 304° (WNW) 10:42:39 435.675
M-CUBED/EXP-1 PRIME 25 Jun 10:41:50 10:43:09 12° 260° (W) 10:44:26 437.505
PRISM 25 Jun 10:55:07 10:58:41 29° 262° (W) 11:02:15 437.425
TIGRISAT 25 Jun 10:56:20 11:00:34 38° 262° (W) 11:04:55 435.000
POLYITAN 1 25 Jun 10:57:56 10:58:34 10° 66° (ENE) 10:59:13 437.675
FO-29 25 Jun 11:04:31 11:09:41 33° 265° (W) 11:15:28 435.910
QB50P2 25 Jun 11:06:46 11:09:14 15° 68° (ENE) 11:11:43 145.880/145.840
EO-88 25 Jun 11:07:05 11:10:40 56° 283° (WNW) 11:14:13 145.990 - 145.960
YUBILEINY 25 Jun 11:22:01 11:28:41 25° 277° (W) 11:35:22 435.215
EO-79 25 Jun 11:30:11 11:33:43 26° 71° (ENE) 11:37:16 145.935-145.965
LO-87 25 Jun 11:31:05 11:34:12 26° 97° (E) 11:37:18 145.935 - 145.965
AIST 2D 25 Jun 11:34:33 11:38:04 70° 78° (ENE) 11:41:37 435.315
DELFI C3 25 Jun 11:38:47 11:41:14 16° 290° (WNW) 11:43:40 145.870
UNISAT 6 25 Jun 11:41:26 11:42:58 11° 268° (W) 11:44:31 437.425
